Home > Weather > Belo Horizonte > Past weeks

Flag for Brazil Past Weather in Belo Horizonte, Minas Gerais, Brazil — Yesterday and Last 2 Weeks

Now
81 °F

Partly sunny.


Feels Like: 80 °F
Forecast: 62 / 81 °F
Wind: 10 mph from East

Location: Belo Horizonte Airport

Current Time: Jul 28, 2016 at 3:25:47 PM

Latest Report: Jul 28, 2016 at 3:00 PM


Visibility: N/A

Pressure: 30.12 "Hg (27.31 "Hg at 860m altitude)

Humidity: 37%

Dew Point: 52 °F

Location of Belo HorizonteLocation

Past Weather in Belo Horizonte — Graph

°F

Belo Horizonte Temperature Yesterday

Maximum temperature yesterday: 84 °F (at 2:00 PM)
Minimum temperature yesterday: 57 °F (at 6:00 AM)
Average temperature yesterday: 70 °F

High & Low Weather Summary for the Past Weeks

 TemperatureHumidityPressure
High86 °F (Jul 16, 2:00 PM)94% (Jul 14, 7:00 AM)30.33 "Hg (Jul 14, 7:00 AM)
Low46 °F (Jul 18, 6:00 AM)16% (Jul 18, 4:00 PM)29.98 "Hg (Jul 16, 3:00 PM)
Average67 °F59%30.14 "Hg
* Reported Jul 13 2:00 PM — Jul 28 2:00 PM, Belo Horizonte, Weather by CustomWeather, © 2016

Note: Actual official high and low records may vary slightly from our data, if they occured in-between our weather recording intervals... More about our weather records

Advertising

Belo Horizonte Weather History for the Previous 24 Hours

Scroll right to see more
 ConditionsComfort  
Time TempWeatherWind HumidityBarometerVisibility
2:00 PM
Thu, Jul 28
79 °FPartly sunny.7 mph37%30.15 "HgN/A
1:00 PM81 °FScattered clouds.2 mph37%30.15 "HgN/A
12:00 PM79 °FSunny.7 mph39%30.18 "Hg10 mi
11:00 AM75 °FSunny.6 mph44%30.21 "Hg10 mi
10:00 AM73 °FSunny.9 mph50%30.21 "Hg10 mi
9:00 AM68 °FSunny.10 mph64%30.21 "Hg10 mi
8:00 AM61 °FSunny.6 mph72%30.18 "Hg10 mi
7:00 AM57 °FSunny.3 mph82%30.15 "Hg10 mi
6:00 AM57 °FClear.5 mph82%30.15 "Hg10 mi
5:00 AM59 °FClear.No wind77%30.12 "Hg10 mi
4:00 AM63 °FClear.2 mph68%30.12 "Hg10 mi
3:00 AM63 °FClear.2 mph68%30.12 "Hg10 mi
2:00 AM63 °FClear.1 mph68%30.12 "Hg10 mi
1:00 AM66 °FClear.2 mph52%30.15 "Hg10 mi
12:00 AM66 °FClear.2 mph52%30.15 "Hg10 mi
11:00 PM
Wed, Jul 27
68 °FClear.1 mph49%30.15 "Hg10 mi
10:00 PM70 °FClear.2 mph46%30.15 "Hg10 mi
9:00 PM72 °FClear.2 mph41%30.15 "Hg10 mi
8:00 PM73 °FClear.6 mph36%30.12 "Hg10 mi
7:00 PM75 °FClear.6 mph39%30.12 "Hg10 mi
6:00 PM77 °FClear.3 mph34%30.09 "Hg10 mi
5:00 PM81 °FPassing clouds.7 mph30%30.09 "HgN/A
4:00 PM82 °FPassing clouds.6 mph26%30.09 "HgN/A
3:00 PM84 °FSunny.7 mph25%30.09 "Hg10 mi
Weather by CustomWeather, © 2016

See weather overviewHow to use our weather pages